STARLINK-33911 (63777 NORAD) Tracking and Keplerian Element Data

This shows tracking and keplerian element data for the satellite.

Feedback or suggestion? Click here.




ElementValue
Catalog63777
NameSTARLINK-33911
Epoch Orbit3681
Epoch Day354.10943768
Epoch Year2025
RAAN134.8043
Inclination43.0011
Eccentricity0.000147
Argument of Perigee276.5759
Mean Anonmoly83.4926
Mean Motion15.27592557
Decay Rate0.0001866
L11 63777U 25091C 25354.10943768 .00018660 00000+0 68563-3 0 9995
L22 63777 43.0011 134.8043 0001470 276.5759 83.4926 15.27592557 36815



Live tracking and technical data element details for STARLINK-33911 (NORAD 63777). STARLINK-33911 can be tracked NOW for your location showing map with azimuth and elevation plus other details from your city location.







IsCatalogInMostPopularTable: catalog: 63777, numindb: 8
Update: records affected: 1



GetName: 63777 STARLINK-33911

Hit Count: updated at: Tue, 21 Apr 2026 20:49:10 GMT